Theta_e
352 352 350 348 348 348 349 348 348 348 353 352 351 347 347 346 346 342 344 349 346 341 341 343 337 337 343 343 342 341 339 338 335 334 335 332 333 334 330 333 340 344 344
352 351 351 348 348 350 347 348 349 350 352 350 343 344 342 338 340 344 346 347 345 343 343 342 342 341 335 336 334 336 338 339 338 335 334 336 333 334 337 340 341 342 341
352 353 353 352 351 352 351 345 346 340 338 341 341 347 345 342 344 345 345 345 344 342 340 334 334 339 333 336 337 337 339 337 335 337 337 338 339 336 334 334 335 340 343
346 348 350 351 352 353 351 346 343 346 341 343 345 348 343 338 337 339 338 338 336 330 331 335 334 335 333 331 336 338 336 336 335 334 335 336 336 337 336 335 335 336 338
345 345 347 346 349 349 350 348 345 346 343 341 336 341 338 334 338 334 335 333 326 335 335 337 338 337 333 326 330 333 333 332 335 334 333 332 333 334 336 335 333 333 334
346 346 346 347 350 349 349 349 352 348 346 343 319 320 322 323 333 333 331 326 336 334 335 335 335 334 327 330 330 330 331 333 335 334 333 332 331 331 331 331 331 330 328
347 347 346 348 350 350 350 349 353 350 331 320 323 321 323 318 318 321 326 332 334 334 334 334 333 327 326 328 330 330 330 333 332 330 328 328 328 328 331 332 329 328 327
344 346 346 347 348 350 349 348 349 348 322 320 325 323 321 320 334 333 335 335 333 330 333 333 334 333 327 332 332 331 331 331 334 332 329 327 327 323 326 326 329 327 326
343 344 345 345 346 349 349 346 348 341 320 322 326 326 326 318 329 331 333 335 323 332 334 335 334 329 323 331 331 331 331 331 333 331 329 329 326 324 321 319 320 323 325
343 344 344 344 344 348 348 348 349 338 320 322 329 330 329 328 322 320 320 319 321 326 328 327 328 329 325 325 329 331 331 331 331 329 331 328 327 325 321 319 319 318 319
345 344 346 344 343 348 348 349 350 347 326 324 330 335 335 330 323 323 322 321 326 330 332 331 329 326 328 330 331 332 331 330 330 330 330 327 326 325 322 320 318 318 317
342 340 342 347 347 349 349 349 350 348 339 326 330 337 337 329 329 331 328 329 331 330 329 328 331 332 330 329 329 327 329 329 328 327 326 326 327 326 324 320 319 319 319
339 344 344 340 352 350 350 350 350 349 344 328 332 338 338 327 326 325 327 329 329 328 330 332 332 330 328 328 329 330 328 329 328 328 325 323 328 327 326 324 322 320 317
342 347 348 349 352 351 351 350 349 347 345 334 334 337 336 331 328 325 325 328 326 325 330 333 332 329 331 329 329 329 329 328 326 324 322 321 321 326 325 325 323 319 317
343 349 350 353 351 352 351 351 349 346 341 338 338 338 337 334 330 326 324 325 326 327 331 332 330 329 330 331 328 330 327 326 325 324 324 322 320 324 323 324 321 318 318
333 340 350 350 353 352 351 350 349 343 339 338 338 337 335 333 327 325 324 328 329 331 333 332 330 329 330 329 326 328 328 327 325 325 321 322 323 324 324 323 319 318 320
333 334 333 346 351 351 351 350 344 343 338 338 337 335 335 330 325 325 328 330 332 334 332 326 328 329 328 325 326 327 326 326 325 326 321 322 323 323 323 322 319 321 321
334 334 334 336 349 351 351 349 347 344 337 336 335 335 331 325 322 328 333 334 333 333 331 325 327 327 325 328 327 327 326 324 323 323 322 323 323 321 322 321 321 321 320
336 336 334 339 346 349 351 348 344 339 337 336 336 332 326 323 326 331 335 334 335 333 331 330 329 326 330 328 328 326 324 323 321 321 322 324 323 322 322 323 321 320 321
333 330 329 338 344 349 352 349 345 343 338 338 335 327 330 328 331 334 336 336 335 334 334 330 329 327 328 328 327 324 323 323 324 324 324 322 322 322 323 322 322 320 320
335 330 328 342 344 350 350 347 344 342 342 339 327 330 332 332 333 334 336 336 335 334 332 328 329 328 327 328 325 324 323 323 323 323 323 321 323 323 322 323 321 320 320
338 338 339 342 346 349 347 345 344 343 340 334 334 336 335 336 337 336 336 336 335 333 328 328 327 327 325 326 326 324 323 323 322 318 319 321 322 322 322 322 319 321 320
337 341 345 349 349 348 345 342 342 341 343 339 339 339 339 339 338 337 335 336 333 331 326 328 328 327 327 326 323 323 322 317 317 320 321 322 322 322 321 318 321 322 320
340 345 348 347 346 344 342 341 339 336 330 331 328 326 326 333 338 337 335 334 332 326 326 327 326 325 323 321 323 322 318 316 318 320 321 323 321 320 318 318 320 320 320
343 343 343 335 338 337 340 339 335 331 328 326 325 324 325 331 332 331 331 329 328 322 326 326 324 320 320 320 319 318 316 314 318 320 321 320 319 318 318 317 318 318 319
340 335 333 339 334 338 332 335 331 322 327 325 326 334 332 333 332 331 329 327 326 326 325 324 322 321 320 319 318 315 314 316 318 319 318 318 317 316 316 317 318 318 317
Wind_Speed
31 24 22 21 22 18 13 16 11 12 13 11 8 8 8 8 8 8 10 12 10 12 11 9 10 11 12 11 12 15 18 22 24 24 24 24 22 20 21 22 28 27 26
35 26 22 22 23 22 19 16 16 15 14 11 6 5 4 4 2 5 6 8 8 7 5 11 13 16 15 18 18 18 19 23 21 20 22 19 24 15 10 10 17 23 28
32 31 26 24 28 25 20 14 16 13 13 11 7 4 4 3 5 6 5 7 6 10 13 16 18 15 15 12 12 16 17 19 17 15 14 10 7 24 22 18 18 15 18
35 31 29 26 30 27 20 15 17 14 11 8 7 6 6 6 5 8 9 8 11 10 8 10 6 7 13 13 11 13 17 15 16 15 12 13 17 20 21 25 21 17 17
40 37 32 29 30 27 23 20 17 15 12 11 13 12 12 11 11 9 11 13 7 6 7 7 8 14 18 12 12 13 15 14 14 15 16 16 15 12 16 24 30 26 23
44 41 38 35 35 32 27 24 22 20 17 15 11 11 11 13 17 16 16 11 3 6 5 9 13 17 12 8 10 10 12 10 10 12 14 14 16 17 17 22 25 28 30
47 47 44 42 40 39 31 27 26 24 18 15 10 3 1 2 5 6 6 6 6 5 8 11 15 9 9 9 9 11 10 10 11 11 10 10 11 13 14 19 25 29 31
42 49 47 47 45 43 38 32 27 24 21 16 10 6 4 7 6 5 8 7 8 9 10 11 12 10 9 8 11 14 11 11 11 10 12 13 13 11 13 16 20 28 28
27 41 50 51 47 47 42 35 30 27 24 19 15 8 5 6 10 9 10 12 11 8 9 10 13 15 10 9 11 14 13 14 14 16 15 17 14 15 13 16 17 18 19
35 47 48 49 48 48 44 38 33 29 26 22 17 10 4 2 4 7 6 6 6 9 9 10 11 11 12 11 12 16 15 15 16 18 16 19 18 16 15 15 18 21 23
41 28 34 40 51 51 46 41 35 31 28 25 18 12 8 8 8 6 5 5 6 8 10 12 12 13 14 14 14 18 19 16 16 17 18 19 20 19 19 18 19 24 27
33 41 42 45 48 52 47 42 38 33 30 26 20 16 15 13 12 9 9 7 8 9 10 10 11 15 17 16 15 17 16 17 17 16 17 20 22 23 21 21 24 26 29
17 37 50 48 52 52 47 44 39 37 32 29 23 20 18 12 12 12 10 8 7 8 7 10 13 16 15 14 13 15 18 18 19 19 19 22 23 26 25 23 26 27 33
19 34 40 48 54 55 49 47 41 38 32 29 24 22 18 14 11 9 8 8 7 8 9 11 14 14 14 16 17 18 18 18 18 19 22 25 26 27 26 25 27 29 29
22 33 39 50 52 53 50 47 42 38 30 26 23 23 20 15 13 11 9 7 7 8 10 13 15 15 14 16 17 18 21 21 18 22 24 26 25 24 26 26 26 28 32
12 13 31 37 48 52 52 49 44 38 31 29 28 26 23 19 18 14 11 10 10 11 12 16 17 17 16 17 18 18 19 20 21 24 24 25 23 23 25 24 26 28 32
9 9 12 26 38 49 52 51 43 28 34 36 32 30 26 22 19 16 15 15 15 15 14 14 16 17 18 17 16 18 19 22 24 22 20 21 22 22 22 23 27 29 31
12 12 13 14 29 40 49 48 42 43 44 39 32 29 26 24 20 21 20 19 16 17 16 14 17 17 17 18 19 19 22 26 28 25 22 21 22 23 25 25 26 32 29
8 9 11 12 21 30 42 47 45 43 43 35 30 31 27 25 23 23 20 19 19 20 19 18 20 17 20 20 16 19 23 29 22 19 20 19 24 23 24 26 31 31 30
7 6 9 14 22 31 41 43 43 39 35 31 29 27 26 25 25 24 21 21 24 23 21 20 22 18 18 20 21 21 23 21 25 24 17 20 22 22 26 29 28 28 26
10 8 8 12 20 32 37 36 31 31 28 28 23 24 24 23 23 23 22 25 25 24 19 21 22 20 16 18 19 21 24 22 21 20 21 19 19 22 26 25 27 20 24
11 12 12 18 20 34 35 31 25 20 19 22 24 24 23 21 22 24 24 26 25 20 16 22 19 12 14 16 16 22 20 14 20 24 18 16 19 24 25 27 23 18 20
18 14 14 18 22 27 28 22 14 17 6 20 15 16 17 18 22 25 24 23 17 26 18 21 13 12 14 14 17 13 12 17 17 14 13 15 17 17 23 22 18 16 18
21 20 21 20 17 15 24 23 15 9 12 20 2 7 13 18 18 20 19 15 18 16 13 13 11 10 13 15 10 12 16 12 10 8 4 8 12 18 23 18 15 14 16
25 24 17 8 21 19 22 18 11 4 26 14 7 19 12 24 26 24 21 17 20 18 16 13 13 13 12 12 14 16 11 9 6 3 4 6 11 18 23 15 15 16 18
17 13 13 22 22 21 8 13 16 9 19 19 21 17 16 14 18 19 16 13 15 13 12 14 13 14 14 14 14 12 10 5 4 5 5 9 16 19 13 15 16 16 17
Wind_Direction
180 179 177 189 188 185 191 193 200 198 219 244 258 253 256 261 259 269 267 267 268 275 287 313 314 323 313 312 318 316 318 310 311 307 305 302 298 292 281 277 265 260 255
172 175 177 170 179 178 181 186 189 212 221 239 224 249 271 261 300 304 282 259 271 301 321 310 299 297 295 284 291 289 301 301 312 316 312 317 315 327 324 301 289 272 259
170 176 175 178 184 183 182 191 192 193 201 204 215 225 202 203 271 272 251 257 256 270 285 296 295 293 294 304 294 291 300 309 312 316 312 319 311 310 301 292 290 304 278
171 171 172 180 185 184 189 205 194 192 186 187 205 221 222 238 242 233 247 261 298 313 339 337 314 316 323 310 289 302 311 316 316 313 317 306 306 311 312 313 308 298 291
179 177 183 188 190 190 196 206 201 194 189 189 216 221 235 218 220 218 248 273 281 317 337 329 308 314 318 310 311 316 314 321 325 324 324 322 322 322 318 316 317 307 304
183 184 186 189 195 196 199 202 205 201 202 211 210 223 233 233 234 245 262 266 293 293 267 270 283 305 314 323 329 330 336 338 334 336 329 329 331 330 328 322 320 318 314
181 186 186 188 194 190 195 200 208 200 204 202 193 169 226 202 189 199 210 218 230 249 267 283 296 308 337 341 342 344 339 340 338 342 343 349 345 336 335 328 326 323 319
184 185 189 189 192 190 192 202 205 202 203 204 197 194 223 207 185 203 230 245 271 249 271 289 304 320 337 341 325 326 326 327 314 316 322 334 328 326 329 324 326 322 319
193 184 195 191 191 190 196 205 201 202 202 203 208 208 195 179 210 223 236 249 258 257 258 272 287 297 302 309 306 299 295 297 295 302 305 314 309 320 319 330 331 331 323
198 192 186 189 193 195 199 202 207 204 202 204 212 222 227 223 216 227 231 241 253 258 268 286 298 294 299 312 303 301 300 300 287 288 298 309 306 314 310 318 333 342 340
187 157 171 205 199 197 199 202 207 207 205 207 207 220 216 243 253 246 258 268 285 287 289 294 300 304 306 307 303 300 302 306 294 296 302 299 301 304 308 311 324 335 339
197 197 200 195 200 195 199 204 208 209 212 211 204 213 220 239 238 248 261 264 272 283 293 299 304 306 310 309 302 306 306 294 300 295 296 297 294 297 300 304 320 325 327
187 199 194 194 195 197 200 205 208 211 211 208 205 212 226 234 227 233 244 256 270 290 297 305 310 314 314 312 308 305 301 299 297 303 297 301 294 297 292 299 319 321 327
193 184 193 192 194 201 203 205 208 209 210 209 209 215 227 243 242 237 241 256 278 288 292 295 300 304 304 310 314 312 303 301 308 312 314 309 303 296 295 300 312 319 320
203 194 188 192 199 198 203 205 207 205 203 205 209 215 227 240 249 245 242 235 251 268 274 288 291 291 303 311 305 302 311 306 312 314 310 308 305 299 295 302 306 312 314
241 233 218 204 202 202 206 203 203 195 198 208 209 211 221 237 240 238 234 234 253 268 273 283 289 292 300 307 301 300 308 305 309 314 319 315 308 305 295 294 306 303 310
250 259 257 235 212 209 209 199 188 210 200 204 202 205 224 235 236 238 237 236 246 255 280 285 288 297 308 304 307 298 301 297 300 305 314 313 316 314 307 301 298 306 308
233 249 271 271 227 214 207 201 207 206 206 197 198 216 231 235 236 237 237 237 247 257 274 290 310 302 309 299 296 302 313 310 306 300 310 313 315 314 307 304 304 303 305
221 240 254 265 226 220 211 202 195 194 205 205 212 224 230 232 234 238 241 246 248 257 263 277 296 295 294 298 292 307 309 321 320 297 297 310 314 307 302 306 309 312 316
228 269 258 263 227 218 207 204 201 204 209 217 217 226 233 238 239 241 244 245 249 259 258 280 289 288 295 298 298 305 309 306 299 312 307 317 308 304 307 311 313 315 326
223 247 239 242 230 206 203 200 196 201 216 218 221 234 238 244 247 251 249 246 254 253 263 278 290 292 299 301 294 304 306 306 301 306 311 313 304 303 306 312 317 310 328
227 239 240 226 215 203 194 194 207 222 212 222 235 242 246 248 253 250 248 242 252 249 295 283 287 287 300 297 291 304 306 302 307 306 306 292 293 298 309 315 313 302 315
227 212 209 171 159 177 178 169 162 191 187 217 230 237 244 254 253 251 251 240 243 283 266 278 285 283 283 287 302 304 308 312 308 310 298 292 291 303 315 321 316 307 317
198 185 169 151 140 127 159 164 165 173 350 46 75 334 295 279 260 238 250 248 277 286 277 290 257 246 279 291 287 289 307 311 319 309 277 272 287 304 324 327 336 333 344
174 172 151 174 185 227 202 192 210 241 263 217 261 306 280 266 257 261 268 270 275 268 279 265 264 278 284 280 287 303 310 316 318 305 231 238 288 311 321 350 353 358 0
203 224 202 188 197 204 230 244 245 213 193 231 249 257 247 258 266 273 265 236 245 253 261 275 284 290 288 295 294 299 306 290 277 222 260 298 314 320 350 355 356 1 3